Location: Central Falls
(41.8900°N, 71.3929°W)
Time: 12:57:39
(UTC+00:00)

Courier 1B Rocket - Pass Details

Date: 12 December 2023
Orbit: 920 x 1202 km, 28.2° (Epoch: 01 March)

Event Time Altitude Azimuth Distance (km) Brightness Sun altitude
Rises 18:06:30 0° 255° (WSW) 3,792 8.6 22.0°
Reaches altitude 10° 18:10:24 10° 235° (SW) 2,777 8.5 21.7°
Maximum altitude 18:14:15 16° 200° (SSW) 2,309 9.9 21.4°
Drops below altitude 10° 18:17:59 10° 164° (SSE) 2,673 8.2 21.1°
Sets 18:21:38 0° 143° (SE) 3,580 8.3 20.8°
